Location: Erlenbrunn
(49.1717°N, 7.6142°E)
Time: 03:27:25
(UTC+00:00)

H-2A R/B - Pass Details

Date: 25 November 2020
Orbit: 578 x 654 km, 98.5° (Epoch: 24 January)

Event Time Altitude Azimuth Distance (km) Brightness Sun altitude
Exits shadow 17:50:45 - 3° (N) 2,715 5.3 -21.1°
Reaches altitude 10° 17:52:56 10° 350° (N) 1,925 4.6 -21.5°
Maximum altitude 17:56:14 24° 297° (WNW) 1,265 4.2 -22.0°
Drops below altitude 10° 17:59:36 10° 244° (WSW) 1,944 5.6 -22.6°
Sets 18:02:06 0° 231° (SW) 2,856 6.4 -23.0°
